Location: Archemont
(49.1579°N, 1.7598°E)
Time: 11:17:59
(UTC+00:00)

deb Explorer IX - Pass Details

Date: 15 April 2024
Orbit: 513 x 891 km, 38.7° (Epoch: 23 May)

Event Time Altitude Azimuth Distance (km) Brightness Sun altitude
Rises 11:54:11 0° 199° (SSW) 3,492 ? 50.9°
Reaches altitude 10° 11:58:25 10° 173° (S) 2,574 ? 50.9°
Maximum altitude 12:00:54 13° 149° (SSE) 2,389 ? 50.9°
Drops below altitude 10° 12:03:24 10° 125° (SE) 2,567 ? 50.8°
Sets 12:07:34 0° 98° (E) 3,471 ? 50.8°
